Погода в Скарлахте

Россия / Архангельская область     62°40′33″N   38°47′23″E
темп.,
°C
ветер,
м/с
пор.,
м/с
влажн.,
%
обл.,
%
осадки,
мм/ч
давл.,
гПа
погр.,
м
21 апреля, ср
ср2100:000юв26770 0.0 102383
03:00−1юв268187 0.0 1022102
06:000вюв397838 0.0 1019234
09:00+4вюв41161100 0.0 1016585
12:00+7вюв51050100 0.0 1012968
15:00+4юв51267100 0.4 10101239
18:00+3вюв51194100 1.1 1007983
21:00+2вюв41097100 1.5 1005863
22 апреля, чт
чт2200:00+1юв41197100 1.8 1003557
03:00+2ю3795100 2.4 1003756
06:00+1ююз4997100 0.4 1003691
09:00+2ююз5985100 0.8 1004955
12:00+3ююз51093100 0.3 1006865
15:00+3ююз41197100 1.3 1007900
18:00+5юз4983100 0.1 1008962
21:00+2ю269515 0.1 1010123
23 апреля, пт
пт2300:00+2ю269720 0.0 1010118
03:00+1ю279717 0.0 1012120
06:00+2юв389873 0.0 1012178
09:00+8ююв4881100 0.0 1012489
12:00+11ююв5973100 0.0 10121035
15:00+13ю51269100 0.6 10111537
18:00+9ю2792100 1.9 1012338
21:00+7ю2895100 2.0 1014227
24 апреля, сб
сб2400:00+6ююв2297100 0.1 101357
03:00+6юв299892 0.2 1013411
06:00+7юв3897100 0.0 1013393
09:00+10юв4982100 0.1 1012646
12:00+14юв6105746 0.6 10101907
15:00+15юв594853 1.1 10092077
18:00+13вюв6106537 0.5 10091099
21:00+9вюв5127818 0.5 1009637
25 апреля, вс
вс2500:00+7вюв4118517 0.0 1009487
03:00+5в4109090 0.0 1008359
06:00+5в499097 0.0 1008371
09:00+8в467464 0.0 1007730
12:00+10в465178 0.4 10061711
15:00+10в4552100 0.8 10051541
18:00+9в456686 0.4 1005959
21:00+5всв368690 0.4 1005262